Regional Weather Roundup
Issued by NWS

Home | Current Version | Previous Version | Graphics & Text | Print | Product List | Glossary On
Versions: 1 2 3 4 5 6 7 8 9 10 11 12 13 14 15 16 17 18 19 20 21 22 23 24 25 26 27 28 29 30 31 32 33 34 35 36 37 38 39 40 41 42 43 44 45 46 47 48 49 50
975
ASUS44 KLIX 222110
RWRLA
LOUISIANA WEATHER ROUNDUP
NATIONAL WEATHER SERVICE NEW ORLEANS LA
400 PM CDT MON SEP 22 2014

NOTE: "FAIR" INDICATES FEW OR NO CLOUDS BELOW 12,000 FEET WITH NO
      SIGNIFICANT WEATHER AND/OR OBSTRUCTIONS TO VISIBILITY.
      SKY/WX - SKY CONDITION AND SIGNIFICANT WEATHER.
      TMP - AIR TEMPERATURE.    DP   - DEWPOINT TEMPERATURE.
      RH  - RELATIVE HUMIDITY.  PRES - PRESSURE.
      HX  - HEAT INDEX.         WCI  - WIND CHILL INDEX.

*  THESE STATIONS ARE NOT NWS OR FAA STATIONS AND ARE NOT UNDER
   NWS QUALITY CONTROL.

LAZ040-048-061>063-065-066-069-222200-
SOUTHEAST LOUISIANA

CITY           SKY/WX    TMP DP  RH WIND       PRES   REMARKS
N.O. AUDUBON   NOT AVBL
N.O. INTL ARPT MOSUNNY   86  71  60 N12       29.96F
N.O. LAKEFRONT SUNNY     88  75  65 N14       29.96F HX  97
N.O. DOWNTOWN* FAIR      90  68  48 N10G17    29.96S
SLIDELL        PTSUNNY   86  71  60 NE13      29.96F
BATON ROUGE    SUNNY     88  67  49 N9        29.99F
BOOTHVILLE     SUNNY     87  70  56 NE6       29.96F
BELLE CHASSE   PTSUNNY   87  69  54 N9        29.95S
BOGALUSA*        N/A     87  62  42 NE8G16    30.01R
GALLIANO*      NOT AVBL
NEW ROADS*     FAIR      86  64  47 N15G24    30.01S
GONZALES*      FAIR      87  71  59 N10G16    29.97S
HAMMOND*       SUNNY     88  63  42 N9G17     30.00S
HOUMA*         MOSUNNY   90  43  19 N12       29.96F
PORT FOURCHON* CLEAR     88  68  51 NE10G16   29.98F

$$

LAZ041-044-053-054-222200-
SOUTHWEST LOUISIANA

CITY           SKY/WX    TMP DP  RH WIND       PRES   REMARKS
LAKE CHARLES   SUNNY     88  71  57 N14       30.01F
LAFAYETTE      MOSUNNY   89  71  55 N14G21    29.99F HX  95
PATTERSON      MOSUNNY   88  73  62 N10       30.00  HX  96
SALT POINT       N/A     91  72  53 N3        29.96F HX  98
NEW IBERIA     MOSUNNY   89  73  59 N15       29.99F HX  97
CHENAULT AIRPK NOT AVBL

$$

LAZ027-028-222200-
CENTRAL LOUISIANA

CITY           SKY/WX    TMP DP  RH WIND       PRES   REMARKS
FORT POLK      SUNNY     85  60  42 NE10      30.05F
ALEXANDRIA INT SUNNY     85  59  41 N10       30.04F
ALEXANDRIA     SUNNY     86  57  37 VRB6      30.05F

$$

LAZ001-002-222200-
NORTHWEST LOUISIANA

CITY           SKY/WX    TMP DP  RH WIND       PRES   REMARKS
SHREVEPORT     MOSUNNY   87  49  26 NE15G22   30.10S
BARKSDALE AFB  SUNNY     87  49  27 VRB6      30.11S
DTN SHREVEPORT SUNNY     85  49  28 N8        30.10F

$$

LAZ014-016-222200-
NORTHEAST LOUISIANA

CITY           SKY/WX    TMP DP  RH WIND       PRES   REMARKS
MONROE         SUNNY     84  53  34 NE9G17    30.11S
TALLULAH       SUNNY     85  50  29 N14       30.08F

$$




USA.gov is the U.S. government's official web portal to all federal, state and local government web resources and services.